Location: Auckland
(36.8670°S, 174.7670°E)
Time: 14:17:09
(UTC+12:00)

Courier 1B Rocket - Pass Details

Date: 25 July 2019
Orbit: 920 x 1202 km, 28.3° (Epoch: 24 August)

Event Time Altitude Azimuth Distance (km) Brightness Sun altitude
Rises 05:42:06 0° 281° (W) 4,096 - -20.6°
Reaches altitude 10° 05:45:09 10° 287° (WNW) 3,116 - -20.0°
Exits shadow 05:47:42 21° 297° (WNW) 2,355 6.5 -19.5°
Maximum altitude 05:52:22 43° 355° (N) 1,564 6.1 -18.6°
Drops below altitude 10° 05:59:14 10° 64° (ENE) 2,958 8.7 -17.2°
Sets 06:02:02 0° 70° (ENE) 3,871 9.9 -16.7°
